Location: Joplin, MO
(37.0842°N, 94.5133°W)
Time: 14:03:11
(UTC+02:00)

Vanguard 2 Rocket - All Passes

Search period start: 30 March 2023 00:00
Search period end: 09 April 2023 00:00
Orbit: 555 x 3315 km, 32.9° (Epoch: 30 March)

Date Brightness Start Highest point End Pass type
(mag) Time Alt. Az. Time Alt. Az. Time Alt. Az.
30 Mar - 00:35:20 10° S 00:37:53 15° SE 00:40:55 10° ESE daylight
30 Mar - 02:44:37 10° WSW 02:49:44 53° SSE 02:58:22 10° E daylight
30 Mar - 04:56:10 10° W 05:03:17 67° S 05:16:16 10° ESE visible
30 Mar - 07:08:41 10° W 07:18:13 48° SSW 07:33:57 10° SE visible
30 Mar - 09:23:51 10° W 09:34:07 25° SSW 09:47:34 10° SSE night (unlit)
31 Mar - 01:44:54 10° SW 01:49:12 38° SSE 01:55:40 10° E daylight
31 Mar - 03:56:02 10° W 04:02:03 66° S 04:12:47 10° E visible
31 Mar - 06:08:06 10° W 06:16:19 54° SSW 06:30:40 10° ESE visible
31 Mar - 08:21:50 10° W 08:31:44 31° SSW 08:46:04 10° SSE visible
31 Mar - 10:46:22 10° SW 10:47:51 10° SW 10:49:22 10° SW visible
01 Apr - 00:45:29 10° SSW 00:48:54 23° SSE 00:53:16 10° E daylight
01 Apr - 02:56:02 10° WSW 03:01:07 60° S 03:09:44 10° E visible
01 Apr - 05:07:46 10° W 05:14:44 59° S 05:27:16 10° ESE visible
01 Apr - 07:20:35 10° W 07:29:34 37° SSW 07:43:45 10° SE visible
01 Apr - 09:37:56 10° WSW 09:45:23 16° SW 09:54:19 10° S night (unlit)
01 Apr - 23:46:54 10° S 23:48:39 12° SSE 23:50:32 10° ESE daylight
02 Apr - 01:56:07 10° WSW 02:00:27 48° SSE 02:07:09 10° E daylight
02 Apr - 04:07:35 10° W 04:13:29 62° S 04:23:58 10° ESE visible
02 Apr - 06:19:49 10° W 06:27:42 43° SSW 06:40:58 10° SE visible
02 Apr - 08:34:43 10° WSW 08:43:03 21° SSW 08:54:13 10° S night (unlit)
03 Apr - 00:56:18 10° SW 01:00:02 33° SSE 01:05:01 10° E daylight
03 Apr - 03:07:30 10° WSW 03:12:32 62° S 03:21:01 10° E visible
03 Apr - 05:19:22 10° W 05:26:08 49° SSW 05:37:56 10° SE visible
03 Apr - 07:32:52 10° WSW 07:40:56 27° SSW 07:52:47 10° SSE visible
03 Apr - 23:56:44 10° SSW 23:59:43 20° SSE 00:03:08 10° ESE daylight
04 Apr - 02:07:27 10° WSW 02:11:49 55° S 02:18:31 10° E daylight
04 Apr - 04:19:08 10° W 04:24:54 54° S 04:34:56 10° ESE visible
04 Apr - 06:31:45 10° W 06:39:05 32° SSW 06:50:39 10° SSE visible
04 Apr - 08:49:39 10° SW 08:54:26 13° SSW 09:00:01 10° S night (unlit)
04 Apr - 22:57:50 10° S 22:59:22 12° SSE 23:00:53 10° SE daylight
05 Apr - 01:07:25 10° WSW 01:11:18 43° SSE 01:16:30 10° E daylight
05 Apr - 03:18:59 10° W 03:23:56 57° S 03:32:10 10° ESE visible
05 Apr - 05:31:06 10° W 05:37:32 37° SSW 05:48:09 10° SE visible
05 Apr - 07:46:04 10° WSW 07:52:20 17° SSW 08:00:33 10° S visible
06 Apr - 00:07:25 10° SW 00:10:54 30° SSE 00:14:54 10° E daylight
06 Apr - 02:18:52 10° WSW 02:23:11 56° S 02:29:47 10° ESE daylight
06 Apr - 04:30:43 10° W 04:36:17 42° SSW 04:45:35 10° SE visible
06 Apr - 06:44:12 10° WSW 06:50:30 22° SSW 06:59:28 10° SSE visible
06 Apr - 23:07:28 10° SSW 23:10:30 20° SSE 23:13:31 10° ESE daylight
07 Apr - 01:18:42 10° WSW 01:22:36 50° S 01:27:51 10° E daylight
07 Apr - 03:30:29 10° W 03:35:18 47° S 03:43:06 10° ESE visible
07 Apr - 05:43:07 10° WSW 05:48:56 26° SSW 05:57:44 10° SSE visible
07 Apr - 22:07:50 10° S 22:10:00 13° SSE 22:12:00 10° SE daylight
08 Apr - 00:18:26 10° WSW 00:22:08 40° SSE 00:26:23 10° E daylight
08 Apr - 02:30:17 10° W 02:34:32 50° S 02:40:54 10° ESE daylight
08 Apr - 04:42:29 10° WSW 04:47:39 30° SSW 04:55:43 10° SE visible
08 Apr - 06:58:11 10° SW 07:01:56 13° SSW 07:06:26 10° S visible
08 Apr - 23:18:04 10° SW 23:21:43 30° SSE 23:25:16 10° ESE daylight
